Starlink 30545

operational
NORAD ID: 58000 Int'l Des: 2023-153 Owner: SPXS Country: US Constellation: starlink
LEOCIRCULAR

Starlink 30545について

説明を読み込み中...

リアルタイム位置

3D地球を読み込み中...

次回通過

高度履歴

Altitude vs Time

uPlot chart will show altitude changes over time

軌道要素

1 58000U 23153K 25305.57041229 -.00000766 00000-0 -41631-4 0 9992
2 58000 43.0044 44.9332 0001109 273.6437 86.4279 15.02533622115606
Epoch: Nov 1, 2025 • Age: 25 hours

現在のステータス

高度 559.5 km
速度 7.59 km/s
衛星直下点 24.43°N, 65.53°W
打ち上げ日 Oct 5, 2023
運用期間 2 years
タイプ internet

技術仕様

分類 Payload
質量 730.00 kg
乾燥質量 700.00 kg
総質量 730.00 kg
長さ 0.30 m
直径 4.10 m
スパン 29.00 m
形状 Box + pan
製造者 SPXS
バスタイプ Starlink V2M
フェーズステータス In Orbit
所有者/国 SPXS/US

大規模コンステレーション

Loading constellations...